sat.trackr.live / text

‹ back to catalog

STARLINK-30933

NORAD 58410 · 2023-180J

PAYLOAD ACTIVE UNKNOWN

§ Identity

Operator
Country
US
Launch date
2023-11-22
Launch site
AFETR
Launch vehicle
Mass (kg)
RCS (m²)

Purposes: comms

External: N2YO · Heavens-Above · Gunter

§ Orbital elements

Epoch: 2026-09-20T07:18:50.719680Z

Period
94.27 min
Inclination
43.0010°
Eccentricity
0.0001297
Mean motion
15.27583137 rev/d
Perigee alt
482.1 km
Apogee alt
483.9 km
Semi-major
6,861.2 km
B*
5.0262e-5
RAAN
247.6641°
Arg perigee
267.8355°
Mean anomaly
92.2348°
Rev number
15,910

§ Raw data

STARLINK-309331 58410U 23180J   26263.30475370  .00001121  00000+0  50262-4 0  99932 58410  43.0010 247.6641 0001297 267.8355  92.2348 15.27583137159109

JSON: /api/v1/satellites/58410 · /tle

For live sub-satellite position, see the globe view (requires WebGL).

§ Visibility from observer

Set your observer location to see the next 7 days of passes ≥ 10°. The values pass through the URL so the page stays shareable.

No JS? Fill the form by hand. The geolocation button needs JavaScript.